Regional Weather Roundup
Issued by NWS Northern Indiana

Home | Current Version | Previous Version | Graphics & Text | Print | Product List | Glossary On
Versions: 1 2 3 4 5 6 7 8 9 10 11 12 13 14 15 16 17 18 19 20 21 22 23 24 25 26 27 28 29 30 31 32 33 34 35 36 37 38 39 40 41 42 43 44 45 46 47 48 49 50
000
ASUS43 KIWX 280800
RWRIWX

KIWX WEATHER ROUNDUP
NATIONAL WEATHER SERVICE NORTHERN INDIANA
400 AM EDT MON JUL 28 2014

NOTE: "FAIR" INDICATES FEW OR NO CLOUDS BELOW 12,000 FEET WITH NO
SIGNIFICANT WEATHER AND/OR OBSTRUCTIONS TO VISIBILITY.

* THESE STATIONS ARE NOT UNDER NWS QUALITY CONTROL. THEY ALSO MAY NOT
  REPORT WEATHER SUCH AS PRECIPITATION OR FOG.

INZ001>027-280900-
NORTHERN INDIANA

CITY           SKY/WX    TMP DP  RH WIND       PRES   REMARKS
GARY*          CLOUDY    65  53  65 N18G28    29.92S
VALPARAISO     MOCLDY    62  54  74 N15G21    29.90R
SOUTH BEND     CLOUDY    63  57  81 N15       29.86R
GOSHEN         CLOUDY    64  59  83 N13       29.83R
MONTICELLO*    CLOUDY    63  57  82 NW9       29.88R
WARSAW*        CLOUDY    61  59  94 N9        29.83S
ANGOLA*        CLOUDY    63  54  72 N9        29.80R
FORT WAYNE     CLOUDY    63  58  83 NW10      29.81R
PERU/GRISSOM   CLOUDY    64  62  94 NW16      29.85R

$$
INZ028>050-280900-
CENTRAL INDIANA

CITY           SKY/WX    TMP DP  RH WIND       PRES   REMARKS
LAFAYETTE      CLOUDY    63  57  81 NW12      29.89R
KOKOMO*        CLOUDY    64  57  77 NW15      29.85R
MUNCIE*        CLOUDY    63  57  81 NW13      29.83R
INDIANAPOLIS   PTCLDY    64  58  80 NW12      29.86R

$$
MIZ043>046-050>051-056>058-064>065-071>073-077>080-280900-
SOUTHWEST LOWER MICHIGAN

CITY           SKY/WX    TMP DP  RH WIND       PRES   REMARKS
BATTLE CREEK   MOCLDY    63  59  87 NW8       29.82R
BENTON HARBOR  MOCLDY    60  56  86 VRB6      29.86R
COLDWATER*     CLOUDY    64  61  90 NW7       29.80S
HILLSDALE*     CLOUDY    62  62  97 NW14      29.78S
HOLLAND        CLOUDY    63  56  78 NW7       29.86R
GRAND RAPIDS   CLOUDY    63  60  90 NW12      29.84R
KALAMAZOO      CLOUDY    63  59  87 N13       29.83R
STURGIS*       PTCLDY    61  59  94 N6        29.81S
THREE RIVERS*  MOCLDY    63  61  94 N7        29.83R

$$
OHZ001>008-015>018-024>025-280900-
NORTHWEST OHIO

CITY           SKY/WX    TMP DP  RH WIND       PRES   REMARKS
DEFIANCE       PTCLDY    62  58  86 VRB5      29.78R
FINDLAY        CLOUDY    63  59  87 NW8       29.74R
TOLEDO EXPRESS CLEAR     60  58  92 W8        29.74S
TOLEDO METCALF CLEAR     62  57  83 NW12      29.74S
LIMA           CLOUDY    62  59  90 NW12      29.78R

$$
&&


USA.gov is the U.S. government's official web portal to all federal, state and local government web resources and services.